St. Stephen, New Brunswick

6:56 AM ADT on April 24, 2017 (GMT -0300)
St. Stephen

Weather History for CWSS - February, 2013

Change the Weather History Date:

Monday, February 11, 2013

  Actual Average Record
Temperature  
Mean Temperature 16 °F -  
Max Temperature 37 °F - - ()
Min Temperature -6 °F - - ()
Degree Days  
Heating Degree Days 50    
Moisture  
Dew Point 13 °F    
Average Humidity 82    
Maximum Humidity 100    
Minimum Humidity 48    
Precipitation  
Precipitation 0.16 in - - ()
Sea Level Pressure  
Sea Level Pressure 30.09 in    
Wind  
Wind Speed 3 mph ()    
Max Wind Speed 12 mph    
Max Gust Speed 20 mph    
T = Trace of Precipitation, MM = Missing Value Source: Averaged Metar Reports

Daily Weather History Graph

Daily Weather History Graph

Search for Another Location

Airport or City:

Trip Planner

Search our weather history database for the weather conditions in past years. The results will help you decide how hot, cold, wet, or windy it might be!

Date:

Astronomy

Feb. 11, 2013 Rise Set
Actual Time 7:35 AM AST 5:51 PM AST
Civil Twilight 7:05 AM AST 6:21 PM AST
Nautical Twilight 6:30 AM AST 6:56 PM AST
Astronomical Twilight 5:56 AM AST 7:30 PM AST
Moon 7:51 AM AST (2/11) 7:52 PM AST (2/11)
Length of Visible Light 11h 16m
Length of Day
10h 15m
New Moon, 2% of the Moon is Illuminated
Feb 11
New Moon
Feb 17
First Quarter
Feb 25
Full
Mar 4
Last Quarter
Mar 11
New

Hourly Weather History & Observations

Time (AST) Temp. Windchill Dew Point Humidity Pressure Visibility Wind Dir Wind Speed Gust Speed Precip Events Conditions
12:00 AM 5.0 °F - 1.9 °F 87% 30.29 in - West 1.2 mph - N/A   Unknown
1:00 AM 3.4 °F -5.9 °F 0.5 °F 88% 30.30 in - West 4.6 mph - N/A   Unknown
2:00 AM 3 °F - 0 °F 83% 30.32 in - WNW 4.6 mph - -  
2:00 AM 3.4 °F -5.9 °F 0.3 °F 87% 30.32 in - WNW 4.6 mph - N/A   Unknown
3:00 AM 3.0 °F -4.4 °F 0.1 °F 88% 30.32 in - WNW 3.5 mph - N/A   Unknown
4:00 AM 2.3 °F -5.2 °F -2.4 °F 81% 30.30 in - WNW 3.5 mph - N/A   Unknown
5:00 AM -1 °F - -5 °F 74% 30.29 in - Calm Calm - -  
5:00 AM -0.9 °F - -5.1 °F 83% 30.29 in - Calm Calm - N/A   Unknown
6:00 AM -2.2 °F - -5.4 °F 86% 30.29 in - NW 1.2 mph - N/A   Unknown
7:00 AM -4.5 °F - -7.8 °F 86% 30.27 in - Calm Calm - N/A   Unknown
8:00 AM -5 °F - -8 °F 81% 30.26 in - NNW 1.2 mph - -  
8:00 AM -4.7 °F - -7.8 °F 87% 30.26 in - NNW 1.2 mph - N/A   Unknown
9:00 AM 2.8 °F - -2.7 °F 78% 30.27 in - Calm Calm - N/A   Unknown
10:00 AM 11.7 °F - 3.4 °F 69% 30.24 in - Calm Calm - N/A   Unknown
11:00 AM 20 °F - 9 °F 48% 30.22 in - Calm Calm - -  
11:00 AM 20.5 °F - 8.6 °F 60% 30.22 in - Calm Calm - N/A   Unknown
12:00 PM 26.2 °F 22.1 °F 13.6 °F 59% 30.17 in - East 3.5 mph - N/A   Unknown
1:00 PM 30.7 °F 24.9 °F 18.7 °F 61% 30.10 in - East 5.8 mph - N/A   Unknown
2:00 PM 34 °F - 22 °F 49% 30.05 in - ESE 3.5 mph - -  
2:00 PM 34.2 °F 31.2 °F 21.9 °F 61% 30.05 in - ESE 3.5 mph - N/A   Unknown
3:00 PM 36.0 °F 33.3 °F 25.7 °F 66% 30.01 in - ESE 3.5 mph - N/A   Unknown
4:00 PM 34.5 °F 26.2 °F 30.6 °F 85% 29.99 in - South 11.5 mph 19.6 mph N/A   Unknown
5:00 PM 33 °F - 32 °F 92% 29.94 in - ESE 3.5 mph - -  
5:00 PM 31.3 °F 27.9 °F 31.6 °F 100% 29.94 in - ESE 3.5 mph - 0.03 in   Unknown
7:00 PM 31.6 °F 24.4 °F 31.8 °F 100% 29.84 in - ESE 8.1 mph - 0.01 in   Unknown
8:00 PM 33 °F - 32 °F 94% 29.80 in - ESE 9.2 mph - -  
8:00 PM 31.5 °F 23.5 °F 32.0 °F 100% 29.80 in - ESE 9.2 mph - N/A   Unknown
9:00 PM 31.3 °F 24.7 °F 31.6 °F 100% 29.74 in - ESE 6.9 mph - 0.02 in   Unknown
10:00 PM 33.8 °F 29.6 °F 33.4 °F 99% 29.69 in - East 4.6 mph - 0.14 in   Unknown
11:00 PM 35 °F - 35 °F 99% 29.62 in - NE 3.5 mph - -  
11:00 PM 35.2 °F 32.4 °F 34.9 °F 99% 29.62 in - NE 3.5 mph - N/A   Unknown